TimeCDT,TemperatureF,Dew PointF,Humidity,Sea Level PressureIn,VisibilityMPH,Wind Direction,Wind SpeedMPH,Gust SpeedMPH,PrecipitationIn,Events,Conditions,WindDirDegrees,DateUTC
12:53 AM,71.1,69.1,93,29.80,10.0,NNE,3.5,-,N/A,,Overcast,20,2013-09-22 05:53:00
1:53 AM,71.1,68.0,90,29.80,10.0,North,3.5,-,N/A,,Overcast,10,2013-09-22 06:53:00
2:13 AM,71.6,68.0,88,29.81,10.0,North,3.5,-,N/A,,Overcast,10,2013-09-22 07:13:00
2:53 AM,70.0,66.9,90,29.79,10.0,NNE,5.8,-,N/A,,Overcast,20,2013-09-22 07:53:00
3:53 AM,68.0,64.0,87,29.80,10.0,North,4.6,-,N/A,,Mostly Cloudy,10,2013-09-22 08:53:00
4:53 AM,66.9,63.0,87,29.79,10.0,North,5.8,-,N/A,,Clear,10,2013-09-22 09:53:00
5:53 AM,64.9,61.0,87,29.80,10.0,NNE,6.9,-,N/A,,Clear,20,2013-09-22 10:53:00
6:53 AM,64.0,60.1,87,29.81,10.0,NNE,5.8,-,N/A,,Clear,20,2013-09-22 11:53:00
7:53 AM,64.9,60.1,84,29.84,10.0,NNE,4.6,-,N/A,,Clear,30,2013-09-22 12:53:00
8:53 AM,68.0,59.0,73,29.86,10.0,NE,8.1,-,N/A,,Clear,40,2013-09-22 13:53:00
9:53 AM,72.0,57.9,61,29.85,10.0,NE,10.4,-,N/A,,Clear,40,2013-09-22 14:53:00
10:53 AM,73.9,57.9,57,29.86,10.0,ENE,11.5,-,N/A,,Clear,70,2013-09-22 15:53:00
11:53 AM,77.0,57.0,50,29.85,10.0,North,8.1,-,N/A,,Clear,360,2013-09-22 16:53:00
12:53 PM,78.1,57.0,48,29.84,10.0,North,8.1,-,N/A,,Clear,10,2013-09-22 17:53:00
1:53 PM,78.1,57.0,48,29.82,10.0,NNE,3.5,-,N/A,,Clear,20,2013-09-22 18:53:00
2:53 PM,80.1,57.0,45,29.80,10.0,NNE,9.2,-,N/A,,Clear,20,2013-09-22 19:53:00
3:53 PM,82.0,57.9,44,29.79,10.0,NNE,8.1,-,N/A,,Clear,30,2013-09-22 20:53:00
4:53 PM,81.0,55.9,42,29.78,10.0,NNE,6.9,-,N/A,,Clear,20,2013-09-22 21:53:00
5:53 PM,77.0,57.9,52,29.80,10.0,NNE,3.5,-,N/A,,Clear,20,2013-09-22 22:53:00
6:53 PM,73.9,60.1,62,29.81,10.0,North,3.5,-,N/A,,Clear,10,2013-09-22 23:53:00
7:53 PM,66.9,63.0,87,29.83,10.0,Calm,Calm,-,N/A,,Clear,0,2013-09-23 00:53:00
8:53 PM,66.0,62.1,87,29.84,10.0,Calm,Calm,-,N/A,,Clear,0,2013-09-23 01:53:00
9:53 PM,64.0,61.0,90,29.85,10.0,Calm,Calm,-,N/A,,Clear,0,2013-09-23 02:53:00
10:53 PM,63.0,60.1,90,29.84,10.0,Calm,Calm,-,N/A,,Clear,0,2013-09-23 03:53:00
11:53 PM,62.1,60.1,93,29.83,10.0,Calm,Calm,-,N/A,,Clear,0,2013-09-23 04:53:00